Year,Month,Day,Hour,Minute,Value (Times are PST for temperature in C)
2008,05,01,00,00,8.00
2008,05,01,00,01,8.00
2008,05,01,00,02,8.00
2008,05,01,00,03,8.00
2008,05,01,00,04,8.00
2008,05,01,00,05,8.00
2008,05,01,00,06,8.00
2008,05,01,00,07,8.00
2008,05,01,00,08,8.00
2008,05,01,00,09,8.00
2008,05,01,00,10,7.90
2008,05,01,00,11,7.90
2008,05,01,00,12,7.90
2008,05,01,00,13,7.90
2008,05,01,00,14,7.90
2008,05,01,00,15,8.00
2008,05,01,00,16,8.00
2008,05,01,00,17,8.00
2008,05,01,00,18,8.00
2008,05,01,00,19,8.00
2008,05,01,00,20,8.00
2008,05,01,00,21,8.10
2008,05,01,00,22,8.10
2008,05,01,00,23,8.10
2008,05,01,00,24,8.10
2008,05,01,00,25,8.10
2008,05,01,00,26,8.10
2008,05,01,00,27,8.10
2008,05,01,00,28,8.10
2008,05,01,00,29,8.10
2008,05,01,00,30,8.10
2008,05,01,00,31,8.10
2008,05,01,00,32,8.10
2008,05,01,00,33,8.10
2008,05,01,00,34,8.10
2008,05,01,00,35,8.00
2008,05,01,00,36,8.00
2008,05,01,00,37,8.00
2008,05,01,00,38,8.00
2008,05,01,00,39,8.00
2008,05,01,00,40,8.00
2008,05,01,00,41,7.90
2008,05,01,00,42,7.90
2008,05,01,00,43,7.90
2008,05,01,00,44,8.00
2008,05,01,00,45,8.00
2008,05,01,00,46,8.00
2008,05,01,00,47,8.00
2008,05,01,00,48,8.00
2008,05,01,00,49,8.00
2008,05,01,00,50,8.00
2008,05,01,00,51,8.00
2008,05,01,00,52,8.00
2008,05,01,00,53,8.00
2008,05,01,00,54,8.00
2008,05,01,00,55,8.00
2008,05,01,00,56,8.00
2008,05,01,00,57,7.90
2008,05,01,00,58,7.90
2008,05,01,00,59,7.90
2008,05,01,01,00,7.90
2008,05,01,01,01,7.90
2008,05,01,01,02,7.90
2008,05,01,01,03,7.90
2008,05,01,01,04,7.90
2008,05,01,01,05,7.90
2008,05,01,01,06,7.90
2008,05,01,01,07,7.90
2008,05,01,01,08,7.90
2008,05,01,01,09,7.90
2008,05,01,01,10,7.90
2008,05,01,01,11,7.90
2008,05,01,01,12,7.90
2008,05,01,01,13,7.90
2008,05,01,01,14,7.90
2008,05,01,01,15,7.90
2008,05,01,01,16,7.90
2008,05,01,01,17,7.80
2008,05,01,01,18,7.80
2008,05,01,01,19,7.80
2008,05,01,01,20,7.80
2008,05,01,01,21,7.80
2008,05,01,01,22,7.80
2008,05,01,01,23,7.80
2008,05,01,01,24,7.80
2008,05,01,01,25,7.80
2008,05,01,01,26,7.80
2008,05,01,01,27,7.80
2008,05,01,01,28,7.80
2008,05,01,01,29,7.80
2008,05,01,01,30,7.80
2008,05,01,01,31,7.80
2008,05,01,01,32,7.80
2008,05,01,01,33,7.80
2008,05,01,01,34,7.80
2008,05,01,01,35,7.80
2008,05,01,01,36,7.80
2008,05,01,01,37,7.80
2008,05,01,01,38,7.80
2008,05,01,01,39,7.80
2008,05,01,01,40,7.80
2008,05,01,01,41,7.80
2008,05,01,01,42,7.80
2008,05,01,01,43,7.70
2008,05,01,01,44,7.70
2008,05,01,01,45,7.70
2008,05,01,01,46,7.70
2008,05,01,01,47,7.70
2008,05,01,01,48,7.70
2008,05,01,01,49,7.70
2008,05,01,01,50,7.70
2008,05,01,01,51,7.70
2008,05,01,01,52,7.60
2008,05,01,01,53,7.60
2008,05,01,01,54,7.60
2008,05,01,01,55,7.60
2008,05,01,01,56,7.60
2008,05,01,01,57,7.60
2008,05,01,01,58,7.50
2008,05,01,01,59,7.50
2008,05,01,02,00,7.50
2008,05,01,02,01,7.50
2008,05,01,02,02,7.40
2008,05,01,02,03,7.40
2008,05,01,02,04,7.40
2008,05,01,02,05,7.40
2008,05,01,02,06,7.40
2008,05,01,02,07,7.40
2008,05,01,02,08,7.30
2008,05,01,02,09,7.30
2008,05,01,02,10,7.30
2008,05,01,02,11,7.30
2008,05,01,02,12,7.30
2008,05,01,02,13,7.20
2008,05,01,02,14,7.20
2008,05,01,02,15,7.20
2008,05,01,02,16,7.20
2008,05,01,02,17,7.20
2008,05,01,02,18,7.20
2008,05,01,02,19,7.20
2008,05,01,02,20,7.20
2008,05,01,02,21,7.20
2008,05,01,02,22,7.10
2008,05,01,02,23,7.10
2008,05,01,02,24,7.10
2008,05,01,02,25,7.10
2008,05,01,02,26,7.10
2008,05,01,02,27,7.00
2008,05,01,02,28,7.00
2008,05,01,02,29,6.90
2008,05,01,02,30,6.90
2008,05,01,02,31,6.90
2008,05,01,02,32,6.80
2008,05,01,02,33,6.80
2008,05,01,02,34,6.80
2008,05,01,02,35,6.80
2008,05,01,02,36,6.90
2008,05,01,02,37,6.90
2008,05,01,02,38,6.90
2008,05,01,02,39,6.90
2008,05,01,02,40,6.90
2008,05,01,02,41,6.90
2008,05,01,02,42,6.90
2008,05,01,02,43,6.80
2008,05,01,02,44,6.80
2008,05,01,02,45,6.80
2008,05,01,02,46,6.70
2008,05,01,02,47,6.70
2008,05,01,02,48,6.70
2008,05,01,02,49,6.60
2008,05,01,02,50,6.60
2008,05,01,02,51,6.60
2008,05,01,02,52,6.60
2008,05,01,02,53,6.50
2008,05,01,02,54,6.50
2008,05,01,02,55,6.50
2008,05,01,02,56,6.60
2008,05,01,02,57,6.60
2008,05,01,02,58,6.60
2008,05,01,02,59,6.50
2008,05,01,03,00,6.40
2008,05,01,03,01,6.40
2008,05,01,03,02,6.30
2008,05,01,03,03,6.30
2008,05,01,03,04,6.20
2008,05,01,03,05,6.10
2008,05,01,03,06,6.10
2008,05,01,03,07,6.10
2008,05,01,03,08,6.10
2008,05,01,03,09,6.00
2008,05,01,03,10,6.00
2008,05,01,03,11,6.00
2008,05,01,03,12,5.90
2008,05,01,03,13,5.90
2008,05,01,03,14,5.90
2008,05,01,03,15,6.00
2008,05,01,03,16,6.10
2008,05,01,03,17,6.20
2008,05,01,03,18,6.20
2008,05,01,03,19,6.20
2008,05,01,03,20,6.20
2008,05,01,03,21,6.20
2008,05,01,03,22,6.20
2008,05,01,03,23,6.20
2008,05,01,03,24,6.20
2008,05,01,03,25,6.10
2008,05,01,03,26,6.10
2008,05,01,03,27,6.10
2008,05,01,03,28,6.10
2008,05,01,03,29,6.10
2008,05,01,03,30,6.10
2008,05,01,03,31,6.10
2008,05,01,03,32,6.10
2008,05,01,03,33,6.10
2008,05,01,03,34,6.10
2008,05,01,03,35,6.10
2008,05,01,03,36,6.10
2008,05,01,03,37,6.10
2008,05,01,03,38,6.10
2008,05,01,03,39,6.10
2008,05,01,03,40,6.10
2008,05,01,03,41,6.00
2008,05,01,03,42,6.00
2008,05,01,03,43,5.90
2008,05,01,03,44,5.80
2008,05,01,03,45,5.80
2008,05,01,03,46,5.70
2008,05,01,03,47,5.70
2008,05,01,03,48,5.60
2008,05,01,03,49,5.50
2008,05,01,03,50,5.50
2008,05,01,03,51,5.50
2008,05,01,03,52,5.40
2008,05,01,03,53,5.40
2008,05,01,03,54,5.30
2008,05,01,03,55,5.30
2008,05,01,03,56,5.30
2008,05,01,03,57,5.20
2008,05,01,03,58,5.20
2008,05,01,03,59,5.20
2008,05,01,04,00,5.20
2008,05,01,04,01,5.20
2008,05,01,04,02,5.10
2008,05,01,04,03,5.10
2008,05,01,04,04,5.10
2008,05,01,04,05,5.10
2008,05,01,04,06,5.10
2008,05,01,04,07,5.10
2008,05,01,04,08,5.10
2008,05,01,04,09,5.10
2008,05,01,04,10,5.10
2008,05,01,04,11,5.20
2008,05,01,04,12,5.20
2008,05,01,04,13,5.20
2008,05,01,04,14,5.20
2008,05,01,04,15,5.20
2008,05,01,04,16,5.20
2008,05,01,04,17,5.20
2008,05,01,04,18,5.20
2008,05,01,04,19,5.20
2008,05,01,04,20,5.10
2008,05,01,04,21,5.10
2008,05,01,04,22,5.10
2008,05,01,04,23,5.10
2008,05,01,04,24,5.10
2008,05,01,04,25,5.10
2008,05,01,04,26,5.10
2008,05,01,04,27,5.10
2008,05,01,04,28,5.00
2008,05,01,04,29,5.00
2008,05,01,04,30,5.00
2008,05,01,04,31,4.90
2008,05,01,04,32,4.90
2008,05,01,04,33,4.90
2008,05,01,04,34,4.80
2008,05,01,04,35,4.80
2008,05,01,04,36,4.80
2008,05,01,04,37,4.80
2008,05,01,04,38,4.80
2008,05,01,04,39,4.70
2008,05,01,04,40,4.70
2008,05,01,04,41,4.70
2008,05,01,04,42,4.70
2008,05,01,04,43,4.60
2008,05,01,04,44,4.60
2008,05,01,04,45,4.60
2008,05,01,04,46,4.50
2008,05,01,04,47,4.50
2008,05,01,04,48,4.40
2008,05,01,04,49,4.40
2008,05,01,04,50,4.30
2008,05,01,04,51,4.30
2008,05,01,04,52,4.20
2008,05,01,04,53,4.20
2008,05,01,04,54,4.10
2008,05,01,04,55,4.10
2008,05,01,04,56,4.10
2008,05,01,04,57,4.00
2008,05,01,04,58,3.90
2008,05,01,04,59,3.90
2008,05,01,05,00,3.90
2008,05,01,05,01,3.90
2008,05,01,05,02,3.90
2008,05,01,05,03,3.80
2008,05,01,05,04,3.80
2008,05,01,05,05,3.80
2008,05,01,05,06,3.80
2008,05,01,05,07,3.80
2008,05,01,05,08,3.90
2008,05,01,05,09,3.90
2008,05,01,05,10,3.90
2008,05,01,05,11,3.90
2008,05,01,05,12,3.90
2008,05,01,05,13,3.90
2008,05,01,05,14,3.90
2008,05,01,05,15,3.90
2008,05,01,05,16,3.90
2008,05,01,05,17,3.90
2008,05,01,05,18,3.80
2008,05,01,05,19,3.80
2008,05,01,05,20,3.80
2008,05,01,05,21,3.80
2008,05,01,05,22,3.80
2008,05,01,05,23,3.80
2008,05,01,05,24,3.80
2008,05,01,05,25,3.80
2008,05,01,05,26,3.80
2008,05,01,05,27,3.80
2008,05,01,05,28,3.90
2008,05,01,05,29,3.90
2008,05,01,05,30,4.00
2008,05,01,05,31,4.10
2008,05,01,05,32,4.10
2008,05,01,05,33,4.20
2008,05,01,05,34,4.20
2008,05,01,05,35,4.20
2008,05,01,05,36,4.30
2008,05,01,05,37,4.30
2008,05,01,05,38,4.20
2008,05,01,05,39,4.20
2008,05,01,05,40,4.30
2008,05,01,05,41,4.30
2008,05,01,05,42,4.30
2008,05,01,05,43,4.20
2008,05,01,05,44,4.20
2008,05,01,05,45,4.20
2008,05,01,05,46,4.10
2008,05,01,05,47,4.10
2008,05,01,05,48,4.10
2008,05,01,05,49,4.10
2008,05,01,05,50,4.00
2008,05,01,05,51,4.00
2008,05,01,05,52,4.00
2008,05,01,05,53,4.00
2008,05,01,05,54,3.90
2008,05,01,05,55,3.90
2008,05,01,05,56,3.90
2008,05,01,05,57,3.90
2008,05,01,05,58,3.90
2008,05,01,05,59,3.90
2008,05,01,06,00,3.90
2008,05,01,06,01,3.90
2008,05,01,06,02,3.90
2008,05,01,06,03,3.90
2008,05,01,06,04,3.90
2008,05,01,06,05,3.90
2008,05,01,06,06,3.80
2008,05,01,06,07,3.80
2008,05,01,06,08,3.80
2008,05,01,06,09,3.80
2008,05,01,06,10,3.80
2008,05,01,06,11,3.80
2008,05,01,06,12,3.70
2008,05,01,06,13,3.80
2008,05,01,06,14,3.80
2008,05,01,06,15,3.80
2008,05,01,06,16,3.80
2008,05,01,06,17,3.80
2008,05,01,06,18,3.80
2008,05,01,06,19,3.80
2008,05,01,06,20,3.80
2008,05,01,06,21,3.80
2008,05,01,06,22,3.80
2008,05,01,06,23,3.80
2008,05,01,06,24,3.80
2008,05,01,06,25,3.90
2008,05,01,06,26,4.00
2008,05,01,06,27,4.00
2008,05,01,06,28,4.10
2008,05,01,06,29,4.10
2008,05,01,06,30,4.10
2008,05,01,06,31,4.10
2008,05,01,06,32,4.10
2008,05,01,06,33,4.10
2008,05,01,06,34,4.20
2008,05,01,06,35,4.20
2008,05,01,06,36,4.20
2008,05,01,06,37,4.20
2008,05,01,06,38,4.20
2008,05,01,06,39,4.20
2008,05,01,06,40,4.20
2008,05,01,06,41,4.20
2008,05,01,06,42,4.20
2008,05,01,06,43,4.20
2008,05,01,06,44,4.20
2008,05,01,06,45,4.20
2008,05,01,06,46,4.20
2008,05,01,06,47,4.30
2008,05,01,06,48,4.30
2008,05,01,06,49,4.30
2008,05,01,06,50,4.40
2008,05,01,06,51,4.40
2008,05,01,06,52,4.50
2008,05,01,06,53,4.60
2008,05,01,06,54,4.70
2008,05,01,06,55,4.80
2008,05,01,06,56,4.90
2008,05,01,06,57,5.00
2008,05,01,06,58,5.10
2008,05,01,06,59,5.10
2008,05,01,07,00,5.30
2008,05,01,07,01,5.40
2008,05,01,07,02,5.50
2008,05,01,07,03,5.60
2008,05,01,07,04,5.70
2008,05,01,07,05,5.70
2008,05,01,07,06,5.80
2008,05,01,07,07,5.80
2008,05,01,07,08,5.80
2008,05,01,07,09,5.90
2008,05,01,07,10,5.90
2008,05,01,07,11,5.90
2008,05,01,07,12,5.90
2008,05,01,07,13,5.90
2008,05,01,07,14,5.90
2008,05,01,07,15,5.90
2008,05,01,07,16,5.90
2008,05,01,07,17,6.00
2008,05,01,07,18,6.00
2008,05,01,07,19,6.00
2008,05,01,07,20,6.10
2008,05,01,07,21,6.10
2008,05,01,07,22,6.10
2008,05,01,07,23,6.10
2008,05,01,07,24,6.10
2008,05,01,07,25,6.20
2008,05,01,07,26,6.20
2008,05,01,07,27,6.20
2008,05,01,07,28,6.20
2008,05,01,07,29,6.20
2008,05,01,07,30,6.20
2008,05,01,07,31,6.30
2008,05,01,07,32,6.30
2008,05,01,07,33,6.30
2008,05,01,07,34,6.30
2008,05,01,07,35,6.40
2008,05,01,07,36,6.40
2008,05,01,07,37,6.50
2008,05,01,07,38,6.50
2008,05,01,07,39,6.60
2008,05,01,07,40,6.60
2008,05,01,07,41,6.70
2008,05,01,07,42,6.70
2008,05,01,07,43,6.80
2008,05,01,07,44,6.80
2008,05,01,07,45,6.90
2008,05,01,07,46,7.00
2008,05,01,07,47,7.00
2008,05,01,07,48,7.10
2008,05,01,07,49,7.20
2008,05,01,07,50,7.30
2008,05,01,07,51,7.40
2008,05,01,07,52,7.60
2008,05,01,07,53,7.70
2008,05,01,07,54,7.80
2008,05,01,07,55,7.90
2008,05,01,07,56,7.90
2008,05,01,07,57,7.90
2008,05,01,07,58,7.90
2008,05,01,07,59,8.00
2008,05,01,08,00,8.10
2008,05,01,08,01,8.10
2008,05,01,08,02,8.20
2008,05,01,08,03,8.20
2008,05,01,08,04,8.20
2008,05,01,08,05,8.20
2008,05,01,08,06,8.20
2008,05,01,08,07,8.20
2008,05,01,08,08,8.10
2008,05,01,08,09,8.10
2008,05,01,08,10,8.10
2008,05,01,08,11,8.10
2008,05,01,08,12,8.10
2008,05,01,08,13,8.10
2008,05,01,08,14,8.10
2008,05,01,08,15,8.10
2008,05,01,08,16,8.10
2008,05,01,08,17,8.20
2008,05,01,08,18,8.30
2008,05,01,08,19,8.30
2008,05,01,08,20,8.40
2008,05,01,08,21,8.40
2008,05,01,08,22,8.40
2008,05,01,08,23,8.40
2008,05,01,08,24,8.40
2008,05,01,08,25,8.50
2008,05,01,08,26,8.50
2008,05,01,08,27,8.60
2008,05,01,08,28,8.60
2008,05,01,08,29,8.70
2008,05,01,08,30,8.70
2008,05,01,08,31,8.70
2008,05,01,08,32,8.80
2008,05,01,08,33,8.80
2008,05,01,08,34,8.80
2008,05,01,08,35,8.80
2008,05,01,08,36,8.80
2008,05,01,08,37,8.80
2008,05,01,08,38,8.80
2008,05,01,08,39,8.80
2008,05,01,08,40,8.80
2008,05,01,08,41,8.80
2008,05,01,08,42,8.80
2008,05,01,08,43,8.70
2008,05,01,08,44,8.70
2008,05,01,08,45,8.70
2008,05,01,08,46,8.70
2008,05,01,08,47,8.60
2008,05,01,08,48,8.60
2008,05,01,08,49,8.60
2008,05,01,08,50,8.60
2008,05,01,08,51,8.60
2008,05,01,08,52,8.60
2008,05,01,08,53,8.60
2008,05,01,08,54,8.60
2008,05,01,08,55,8.60
2008,05,01,08,56,8.60
2008,05,01,08,57,8.60
2008,05,01,08,58,8.60
2008,05,01,08,59,8.60
2008,05,01,09,00,8.70
2008,05,01,09,01,8.70
2008,05,01,09,02,8.70
2008,05,01,09,03,8.80
2008,05,01,09,04,8.80
2008,05,01,09,05,8.80
2008,05,01,09,06,8.80
2008,05,01,09,07,8.80
2008,05,01,09,08,8.80
2008,05,01,09,09,8.80
2008,05,01,09,10,8.70
2008,05,01,09,11,8.80
2008,05,01,09,12,8.80
2008,05,01,09,13,8.80
2008,05,01,09,14,8.90
2008,05,01,09,15,8.90
2008,05,01,09,16,8.90
2008,05,01,09,17,8.90
2008,05,01,09,18,8.90
2008,05,01,09,19,8.90
2008,05,01,09,20,9.00
2008,05,01,09,21,9.00
2008,05,01,09,22,9.00
2008,05,01,09,23,9.00
2008,05,01,09,24,9.00
2008,05,01,09,25,9.00
2008,05,01,09,26,8.90
2008,05,01,09,27,8.90
2008,05,01,09,28,8.90
2008,05,01,09,29,8.80
2008,05,01,09,30,8.80
2008,05,01,09,31,8.80
2008,05,01,09,32,8.80
2008,05,01,09,33,8.80
2008,05,01,09,34,8.80
2008,05,01,09,35,8.90
2008,05,01,09,36,8.90
2008,05,01,09,37,8.90
2008,05,01,09,38,8.90
2008,05,01,09,39,9.00
2008,05,01,09,40,9.00
2008,05,01,09,41,9.10
2008,05,01,09,42,9.20
2008,05,01,09,43,9.30
2008,05,01,09,44,9.30
2008,05,01,09,45,9.30
2008,05,01,09,46,9.30
2008,05,01,09,47,9.20
2008,05,01,09,48,9.10
2008,05,01,09,49,9.00
2008,05,01,09,50,8.90
2008,05,01,09,51,8.90
2008,05,01,09,52,8.90
2008,05,01,09,53,8.90
2008,05,01,09,54,8.90
2008,05,01,09,55,9.00
2008,05,01,09,56,9.00
2008,05,01,09,57,9.00
2008,05,01,09,58,9.10
2008,05,01,09,59,9.10
2008,05,01,10,00,9.20
2008,05,01,10,01,9.20
2008,05,01,10,02,9.20
2008,05,01,10,03,9.20
2008,05,01,10,04,9.30
2008,05,01,10,05,9.30
2008,05,01,10,06,9.30
2008,05,01,10,07,9.40
2008,05,01,10,08,9.40
2008,05,01,10,09,9.40
2008,05,01,10,10,9.30
2008,05,01,10,11,9.30
2008,05,01,10,12,9.30
2008,05,01,10,13,9.30
2008,05,01,10,14,9.40
2008,05,01,10,15,9.40
2008,05,01,10,16,9.50
2008,05,01,10,17,9.60
2008,05,01,10,18,9.50
2008,05,01,10,19,9.50
2008,05,01,10,20,9.50
2008,05,01,10,21,9.60
2008,05,01,10,22,9.50
2008,05,01,10,23,9.40
2008,05,01,10,24,9.40
2008,05,01,10,25,9.30
2008,05,01,10,26,9.30
2008,05,01,10,27,9.30
2008,05,01,10,28,9.40
2008,05,01,10,29,9.40
2008,05,01,10,30,9.30
2008,05,01,10,31,9.40
2008,05,01,10,32,9.40
2008,05,01,10,33,9.50
2008,05,01,10,34,9.50
2008,05,01,10,35,9.60
2008,05,01,10,36,9.60
2008,05,01,10,37,9.60
2008,05,01,10,38,9.60
2008,05,01,10,39,9.60
2008,05,01,10,40,9.60
2008,05,01,10,41,9.60
2008,05,01,10,42,9.60
2008,05,01,10,43,9.60
2008,05,01,10,44,9.70
2008,05,01,10,45,9.70
2008,05,01,10,46,9.70
2008,05,01,10,47,9.70
2008,05,01,10,48,9.70
2008,05,01,10,49,9.80
2008,05,01,10,50,9.80
2008,05,01,10,51,9.90
2008,05,01,10,52,9.80
2008,05,01,10,53,9.80
2008,05,01,10,54,9.70
2008,05,01,10,55,9.70
2008,05,01,10,56,9.70
2008,05,01,10,57,9.80
2008,05,01,10,58,9.80
2008,05,01,10,59,9.90
2008,05,01,11,00,9.90
2008,05,01,11,01,9.90
2008,05,01,11,02,9.90
2008,05,01,11,03,9.90
2008,05,01,11,04,9.90
2008,05,01,11,05,9.90
2008,05,01,11,06,9.90
2008,05,01,11,07,9.80
2008,05,01,11,08,9.80
2008,05,01,11,09,9.80
2008,05,01,11,10,9.80
2008,05,01,11,11,9.80
2008,05,01,11,12,9.80
2008,05,01,11,13,9.80
2008,05,01,11,14,9.70
2008,05,01,11,15,9.70
2008,05,01,11,16,9.80
2008,05,01,11,17,9.80
2008,05,01,11,18,9.80
2008,05,01,11,19,9.80
2008,05,01,11,20,9.90
2008,05,01,11,21,9.90
2008,05,01,11,22,9.90
2008,05,01,11,23,9.90
2008,05,01,11,24,9.90
2008,05,01,11,25,9.90
2008,05,01,11,26,9.90
2008,05,01,11,27,9.90
2008,05,01,11,28,9.90
2008,05,01,11,29,9.90
2008,05,01,11,30,9.90
2008,05,01,11,31,9.90
2008,05,01,11,32,9.90
2008,05,01,11,33,9.90
2008,05,01,11,34,10.00
2008,05,01,11,35,10.00
2008,05,01,11,36,10.10
2008,05,01,11,37,10.20
2008,05,01,11,38,10.20
2008,05,01,11,39,10.20
2008,05,01,11,40,10.20
2008,05,01,11,41,10.20
2008,05,01,11,42,10.20
2008,05,01,11,43,10.10
2008,05,01,11,44,10.10
2008,05,01,11,45,10.10
2008,05,01,11,46,10.20
2008,05,01,11,47,10.20
2008,05,01,11,48,10.20
2008,05,01,11,49,10.20
2008,05,01,11,50,10.10
2008,05,01,11,51,10.10
2008,05,01,11,52,10.10
2008,05,01,11,53,10.10
2008,05,01,11,54,10.10
2008,05,01,11,55,10.00
2008,05,01,11,56,10.00
2008,05,01,11,57,10.10
2008,05,01,11,58,10.10
2008,05,01,11,59,10.10
2008,05,01,12,00,10.10
2008,05,01,12,01,10.10
2008,05,01,12,02,10.10
2008,05,01,12,03,10.10
2008,05,01,12,04,10.10
2008,05,01,12,05,10.10
2008,05,01,12,06,10.10
2008,05,01,12,07,10.10
2008,05,01,12,08,10.10
2008,05,01,12,09,10.20
2008,05,01,12,10,10.20
2008,05,01,12,11,10.20
2008,05,01,12,12,10.20
2008,05,01,12,13,10.20
2008,05,01,12,14,10.20
2008,05,01,12,15,10.20
2008,05,01,12,16,10.10
2008,05,01,12,17,10.20
2008,05,01,12,18,10.20
2008,05,01,12,19,10.20
2008,05,01,12,20,10.20
2008,05,01,12,21,10.30
2008,05,01,12,22,10.30
2008,05,01,12,23,10.30
2008,05,01,12,24,10.30
2008,05,01,12,25,10.30
2008,05,01,12,26,10.30
2008,05,01,12,27,10.30
2008,05,01,12,28,10.30
2008,05,01,12,29,10.30
2008,05,01,12,30,10.30
2008,05,01,12,31,10.20
2008,05,01,12,32,10.20
2008,05,01,12,33,10.20
2008,05,01,12,34,10.20
2008,05,01,12,35,10.20
2008,05,01,12,36,10.20
2008,05,01,12,37,10.20
2008,05,01,12,38,10.10
2008,05,01,12,39,10.10
2008,05,01,12,40,10.10
2008,05,01,12,41,10.10
2008,05,01,12,42,10.00
2008,05,01,12,43,10.00
2008,05,01,12,44,9.90
2008,05,01,12,45,9.80
2008,05,01,12,46,9.80
2008,05,01,12,47,9.80
2008,05,01,12,48,9.80
2008,05,01,12,49,9.80
2008,05,01,12,50,9.80
2008,05,01,12,51,9.80
2008,05,01,12,52,9.80
2008,05,01,12,53,9.80
2008,05,01,12,54,9.80
2008,05,01,12,55,9.80
2008,05,01,12,56,9.70
2008,05,01,12,57,9.70
2008,05,01,12,58,9.60
2008,05,01,12,59,9.60
2008,05,01,13,00,9.60
2008,05,01,13,01,9.50
2008,05,01,13,02,9.50
2008,05,01,13,03,9.40
2008,05,01,13,04,9.50
2008,05,01,13,05,9.60
2008,05,01,13,06,9.60
2008,05,01,13,07,9.60
2008,05,01,13,08,9.60
2008,05,01,13,09,9.60
2008,05,01,13,10,9.60
2008,05,01,13,11,9.60
2008,05,01,13,12,9.60
2008,05,01,13,13,9.60
2008,05,01,13,14,9.60
2008,05,01,13,15,9.60
2008,05,01,13,16,9.60
2008,05,01,13,17,9.50
2008,05,01,13,18,9.50
2008,05,01,13,19,9.50
2008,05,01,13,20,9.50
2008,05,01,13,21,9.50
2008,05,01,13,22,9.50
2008,05,01,13,23,9.50
2008,05,01,13,24,9.40
2008,05,01,13,25,9.40
2008,05,01,13,26,9.40
2008,05,01,13,27,9.50
2008,05,01,13,28,9.50
2008,05,01,13,29,9.50
2008,05,01,13,30,9.50
2008,05,01,13,31,9.50
2008,05,01,13,32,9.60
2008,05,01,13,33,9.60
2008,05,01,13,34,9.60
2008,05,01,13,35,9.60
2008,05,01,13,36,9.60
2008,05,01,13,37,9.60
2008,05,01,13,38,9.60
2008,05,01,13,39,9.60
2008,05,01,13,40,9.60
2008,05,01,13,41,9.60
2008,05,01,13,42,9.60
2008,05,01,13,43,9.60
2008,05,01,13,44,9.60
2008,05,01,13,45,9.50
2008,05,01,13,46,9.50
2008,05,01,13,47,9.50
2008,05,01,13,48,9.40
2008,05,01,13,49,9.40
2008,05,01,13,50,9.40
2008,05,01,13,51,9.30
2008,05,01,13,52,9.30
2008,05,01,13,53,9.30
2008,05,01,13,54,9.30
2008,05,01,13,55,9.40
2008,05,01,13,56,9.40
2008,05,01,13,57,9.40
2008,05,01,13,58,9.50
2008,05,01,13,59,9.50
2008,05,01,14,00,9.60
2008,05,01,14,01,9.60
2008,05,01,14,02,9.60
2008,05,01,14,03,9.60
2008,05,01,14,04,9.60
2008,05,01,14,05,9.60
2008,05,01,14,06,9.60
2008,05,01,14,07,9.60
2008,05,01,14,08,9.70
2008,05,01,14,09,9.70
2008,05,01,14,10,9.80
2008,05,01,14,11,9.80
2008,05,01,14,12,9.90
2008,05,01,14,13,9.90
2008,05,01,14,14,10.00
2008,05,01,14,15,10.00
2008,05,01,14,16,10.00
2008,05,01,14,17,10.00
2008,05,01,14,18,10.00
2008,05,01,14,19,9.90
2008,05,01,14,20,9.90
2008,05,01,14,21,9.80
2008,05,01,14,22,9.70
2008,05,01,14,23,9.70
2008,05,01,14,24,9.70
2008,05,01,14,25,9.70
2008,05,01,14,26,9.70
2008,05,01,14,27,9.70
2008,05,01,14,28,9.70
2008,05,01,14,29,9.70
2008,05,01,14,30,9.70
2008,05,01,14,31,9.70
2008,05,01,14,32,9.70
2008,05,01,14,33,9.60
2008,05,01,14,34,9.60
2008,05,01,14,35,9.60
2008,05,01,14,36,9.50
2008,05,01,14,37,9.40
2008,05,01,14,38,9.40
2008,05,01,14,39,9.30
2008,05,01,14,40,9.30
2008,05,01,14,41,9.30
2008,05,01,14,42,9.30
2008,05,01,14,43,9.30
2008,05,01,14,44,9.30
2008,05,01,14,45,9.30
2008,05,01,14,46,9.30
2008,05,01,14,47,9.30
2008,05,01,14,48,9.30
2008,05,01,14,49,9.30
2008,05,01,14,50,9.20
2008,05,01,14,51,9.20
2008,05,01,14,52,9.30
2008,05,01,14,53,9.30
2008,05,01,14,54,9.40
2008,05,01,14,55,9.40
2008,05,01,14,56,9.50
2008,05,01,14,57,9.50
2008,05,01,14,58,9.60
2008,05,01,14,59,9.60
2008,05,01,15,00,9.60
2008,05,01,15,01,9.60
2008,05,01,15,02,9.50
2008,05,01,15,03,9.50
2008,05,01,15,04,9.50
2008,05,01,15,05,9.50
2008,05,01,15,06,9.50
2008,05,01,15,07,9.50
2008,05,01,15,08,9.60
2008,05,01,15,09,9.60
2008,05,01,15,10,9.50
2008,05,01,15,11,9.60
2008,05,01,15,12,9.50
2008,05,01,15,13,9.60
2008,05,01,15,14,9.60
2008,05,01,15,15,9.60
2008,05,01,15,16,9.70
2008,05,01,15,17,9.70
2008,05,01,15,18,9.80
2008,05,01,15,19,9.80
2008,05,01,15,20,9.90
2008,05,01,15,21,9.90
2008,05,01,15,22,10.00
2008,05,01,15,23,10.10
2008,05,01,15,24,10.20
2008,05,01,15,25,10.20
2008,05,01,15,26,10.20
2008,05,01,15,27,10.10
2008,05,01,15,28,10.10
2008,05,01,15,29,10.10
2008,05,01,15,30,10.10
2008,05,01,15,31,10.00
2008,05,01,15,32,10.00
2008,05,01,15,33,9.90
2008,05,01,15,34,9.80
2008,05,01,15,35,9.80
2008,05,01,15,36,9.80
2008,05,01,15,37,9.80
2008,05,01,15,38,9.80
2008,05,01,15,39,9.80
2008,05,01,15,40,9.80
2008,05,01,15,41,9.80
2008,05,01,15,42,9.80
2008,05,01,15,43,9.80
2008,05,01,15,44,9.80
2008,05,01,15,45,9.80
2008,05,01,15,46,9.70
2008,05,01,15,47,9.70
2008,05,01,15,48,9.70
2008,05,01,15,49,9.70
2008,05,01,15,50,9.70
2008,05,01,15,51,9.70
2008,05,01,15,52,9.70
2008,05,01,15,53,9.80
2008,05,01,15,54,9.80
2008,05,01,15,55,9.80
2008,05,01,15,56,9.80
2008,05,01,15,57,9.80
2008,05,01,15,58,9.80
2008,05,01,15,59,9.80
2008,05,01,16,00,9.80
2008,05,01,16,01,9.80
2008,05,01,16,02,9.80
2008,05,01,16,03,9.80
2008,05,01,16,04,9.90
2008,05,01,16,05,9.90
2008,05,01,16,06,9.90
2008,05,01,16,07,10.00
2008,05,01,16,08,10.00
2008,05,01,16,09,10.00
2008,05,01,16,10,10.00
2008,05,01,16,11,10.00
2008,05,01,16,12,10.00
2008,05,01,16,13,9.90
2008,05,01,16,14,9.90
2008,05,01,16,15,9.90
2008,05,01,16,16,9.90
2008,05,01,16,17,9.90
2008,05,01,16,18,9.90
2008,05,01,16,19,10.00
2008,05,01,16,20,10.00
2008,05,01,16,21,10.00
2008,05,01,16,22,10.10
2008,05,01,16,23,10.10
2008,05,01,16,24,10.10
2008,05,01,16,25,10.10
2008,05,01,16,26,10.10
2008,05,01,16,27,10.20
2008,05,01,16,28,10.20
2008,05,01,16,29,10.20
2008,05,01,16,30,10.20
2008,05,01,16,31,10.20
2008,05,01,16,32,10.20
2008,05,01,16,33,10.20
2008,05,01,16,34,10.20
2008,05,01,16,35,10.10
2008,05,01,16,36,10.20
2008,05,01,16,37,10.20
2008,05,01,16,38,10.20
2008,05,01,16,39,10.30
2008,05,01,16,40,10.30
2008,05,01,16,41,10.30
2008,05,01,16,42,10.30
2008,05,01,16,43,10.30
2008,05,01,16,44,10.30
2008,05,01,16,45,10.30
2008,05,01,16,46,10.30
2008,05,01,16,47,10.30
2008,05,01,16,48,10.40
2008,05,01,16,49,10.40
2008,05,01,16,50,10.40
2008,05,01,16,51,10.40
2008,05,01,16,52,10.40
2008,05,01,16,53,10.40
2008,05,01,16,54,10.50
2008,05,01,16,55,10.60
2008,05,01,16,56,10.60
2008,05,01,16,57,10.60
2008,05,01,16,58,10.60
2008,05,01,16,59,10.60
2008,05,01,17,00,10.50
2008,05,01,17,01,10.50
2008,05,01,17,02,10.60
2008,05,01,17,03,10.60
2008,05,01,17,04,10.50
2008,05,01,17,05,10.50
2008,05,01,17,06,10.40
2008,05,01,17,07,10.40
2008,05,01,17,08,10.40
2008,05,01,17,09,10.40
2008,05,01,17,10,10.40
2008,05,01,17,11,10.30
2008,05,01,17,12,10.30
2008,05,01,17,13,10.30
2008,05,01,17,14,10.30
2008,05,01,17,15,10.40
2008,05,01,17,16,10.40
2008,05,01,17,17,10.40
2008,05,01,17,18,10.40
2008,05,01,17,19,10.40
2008,05,01,17,20,10.40
2008,05,01,17,21,10.50
2008,05,01,17,22,10.50
2008,05,01,17,23,10.50
2008,05,01,17,24,10.50
2008,05,01,17,25,10.50
2008,05,01,17,26,10.60
2008,05,01,17,27,10.60
2008,05,01,17,28,10.60
2008,05,01,17,29,10.60
2008,05,01,17,30,10.60
2008,05,01,17,31,10.60
2008,05,01,17,32,10.60
2008,05,01,17,33,10.60
2008,05,01,17,34,10.60
2008,05,01,17,35,10.60
2008,05,01,17,36,10.60
2008,05,01,17,37,10.60
2008,05,01,17,38,10.50
2008,05,01,17,39,10.50
2008,05,01,17,40,10.50
2008,05,01,17,41,10.40
2008,05,01,17,42,10.40
2008,05,01,17,43,10.40
2008,05,01,17,44,10.30
2008,05,01,17,45,10.30
2008,05,01,17,46,10.30
2008,05,01,17,47,10.30
2008,05,01,17,48,10.30
2008,05,01,17,49,10.30
2008,05,01,17,50,10.30
2008,05,01,17,51,10.40
2008,05,01,17,52,10.40
2008,05,01,17,53,10.40
2008,05,01,17,54,10.40
2008,05,01,17,55,10.40
2008,05,01,17,56,10.40
2008,05,01,17,57,10.40
2008,05,01,17,58,10.40